Temperature
19 18 18 17 17 16 16 15 15 14 14 14 14 14 14 14 13 13 13 13 13 13 13 13 14 14 14 14 14 15 15 15 15 15 16 16 17 17 17 17 17 17 17
18 18 17 17 17 16 16 15 15 14 14 14 14 13 13 13 13 13 13 13 13 13 13 13 13 13 13 14 14 14 14 15 15 15 15 15 16 17 17 17 17 17 17
19 18 17 17 16 16 15 15 14 14 14 13 13 13 13 13 13 13 13 13 13 13 13 13 13 13 13 13 14 14 14 14 14 15 15 15 15 16 17 17 17 17 17
19 18 18 17 16 16 15 15 14 14 13 13 13 13 13 13 13 13 13 13 13 13 13 13 13 13 13 13 13 14 14 14 14 14 14 15 15 15 16 16 17 17 17
19 18 18 17 16 16 15 15 14 14 13 13 13 13 13 13 12 12 12 13 13 13 13 13 13 13 13 13 13 13 13 14 14 14 14 14 15 15 15 15 16 16 16
19 18 17 17 16 16 15 14 14 14 13 13 13 13 13 13 12 12 12 12 12 12 13 12 13 13 13 13 13 13 13 13 13 14 14 14 14 15 15 15 15 16 16
19 18 17 17 16 16 15 14 14 14 13 13 13 13 13 12 12 12 12 12 12 12 12 12 12 12 13 13 13 13 13 13 13 13 14 14 14 14 14 15 15 15 15
19 18 18 17 16 16 15 15 14 14 13 13 13 13 13 12 12 12 12 12 12 12 12 12 12 12 12 13 13 13 13 13 13 13 13 14 14 14 14 14 14 15 15
19 18 18 17 16 16 15 15 14 14 13 13 13 13 13 12 12 12 12 12 12 12 12 12 12 12 12 12 13 13 13 13 13 13 13 13 14 14 14 14 14 14 14
19 18 18 17 16 16 15 15 14 14 14 13 13 13 13 12 12 12 12 12 12 12 12 12 12 12 12 12 12 12 13 13 13 13 13 13 13 13 14 14 14 14 14
19 18 18 17 16 16 15 15 14 14 14 13 13 13 13 13 12 12 12 12 12 12 12 12 12 12 12 12 12 12 12 13 13 13 13 13 13 13 14 14 14 14 14
19 18 18 17 16 16 16 15 15 14 14 14 13 13 13 13 12 12 12 12 12 12 12 12 12 12 12 12 12 12 12 12 13 13 13 13 13 13 13 14 14 14 14
19 18 18 17 17 16 16 15 15 14 14 14 13 13 13 13 12 12 12 12 12 12 12 12 12 12 12 12 12 12 12 12 13 13 13 13 13 13 13 13 14 14 14
19 19 18 17 17 16 16 15 15 14 14 14 13 13 13 13 13 12 12 12 12 12 12 12 12 12 12 12 12 12 12 12 12 13 13 13 13 13 13 13 13 13 14
19 19 18 18 17 17 16 16 15 15 14 14 14 13 13 13 13 13 12 12 12 12 12 12 12 12 12 12 12 12 12 12 12 13 13 13 13 13 13 13 13 13 13
20 19 19 18 18 17 16 16 15 15 15 14 14 14 13 13 13 13 13 12 12 12 12 12 12 12 12 12 12 12 12 12 12 12 13 13 13 13 13 13 13 13 13
20 19 19 18 18 17 17 16 16 15 15 15 14 14 14 13 13 13 13 13 12 12 12 12 12 12 12 12 12 12 12 12 12 12 12 13 13 13 13 13 13 13 13
20 20 19 18 18 17 17 17 16 16 15 15 15 14 14 14 13 13 13 13 13 13 12 12 12 12 12 12 12 12 12 12 12 12 12 12 12 12 12 13 13 13 13
20 19 19 18 18 17 17 17 16 16 15 15 15 14 14 14 14 14 13 13 13 13 13 12 12 12 12 12 12 12 12 12 12 12 12 12 12 12 12 12 13 13 13
20 19 19 18 18 17 17 17 16 16 16 15 15 15 14 14 14 14 14 13 13 13 13 13 13 12 12 12 12 12 12 12 12 12 12 12 12 12 12 12 12 13 13
19 19 18 18 18 17 17 17 16 16 16 15 15 15 15 14 14 14 14 14 13 13 13 13 13 13 13 12 12 12 12 12 12 12 12 12 12 12 12 12 12 12 12
19 18 18 18 17 17 17 16 16 16 16 15 15 15 15 15 14 14 14 14 14 14 14 13 13 13 13 13 12 12 12 12 12 12 12 12 12 12 12 12 12 12 12
19 18 18 17 17 17 17 16 16 16 16 15 15 15 15 15 14 14 14 14 14 14 14 13 13 13 13 13 13 12 12 12 12 12 12 12 12 12 12 12 12 12 12
18 18 17 17 17 17 16 16 16 16 15 15 15 15 15 15 14 14 14 14 14 14 14 13 13 13 13 13 13 13 12 12 12 12 12 12 12 12 12 12 12 12 12
18 18 17 17 17 16 16 16 16 15 15 15 15 15 14 14 14 14 14 14 14 13 13 13 13 13 13 13 13 13 13 12 12 12 12 12 12 12 12 12 12 12 12
18 18 17 17 16 16 16 15 15 15 15 15 14 14 14 14 14 14 14 13 13 13 13 13 13 13 13 13 13 13 13 12 12 12 12 12 12 12 12 11 11 11 11
Wind_Speed
6 6 6 6 6 4 4 3 2 2 2 2 2 3 3 4 4 4 5 5 5 5 3 3 3 2 1 2 2 1 1 2 1 0 1 2 2 3 3 4 5 5 6
6 5 6 5 5 4 3 4 3 2 2 1 1 2 2 3 3 4 5 6 6 6 4 2 2 2 1 2 1 0 1 1 1 1 1 2 3 2 3 3 5 6 5
10 8 6 6 5 4 3 4 2 1 1 1 1 2 3 3 4 4 4 5 5 5 4 3 3 2 1 2 2 1 2 2 1 1 2 2 3 2 1 2 3 4 4
9 8 7 7 6 4 3 3 2 1 1 2 2 2 2 3 4 4 4 6 5 5 5 3 3 3 2 3 3 2 2 2 1 1 1 2 2 2 1 1 1 3 4
10 9 8 8 6 5 4 3 2 0 2 2 2 2 2 3 4 4 6 6 6 5 5 4 3 3 2 3 3 2 2 2 2 2 1 1 1 2 2 2 1 1 2
8 8 7 7 5 4 3 2 1 1 2 2 2 1 2 3 4 5 6 5 5 5 5 4 3 3 3 3 3 3 3 2 3 3 2 2 2 2 2 2 2 2 2
8 8 8 7 5 4 3 2 2 1 2 2 2 2 2 2 3 4 4 5 4 4 5 5 4 3 3 3 2 2 3 3 3 3 3 3 3 3 3 3 2 1 1
8 9 9 7 6 6 5 3 2 2 2 2 2 2 2 2 3 4 4 4 4 5 5 5 4 4 3 3 2 2 2 2 3 3 3 3 3 3 3 3 3 1 1
9 9 8 7 6 6 5 4 4 2 1 2 2 2 3 3 4 4 4 4 4 5 5 5 4 4 3 3 2 1 2 2 2 3 3 3 3 3 3 3 4 4 3
8 8 7 7 6 6 4 3 4 3 2 1 2 2 3 4 4 4 5 5 5 5 6 5 4 4 3 2 1 1 2 2 2 2 2 2 2 2 3 3 3 4 4
9 8 7 6 6 5 4 4 4 3 2 2 1 2 3 3 4 3 4 4 4 5 5 5 5 4 4 3 1 2 2 2 2 2 2 3 2 2 2 2 3 3 4
9 8 8 6 5 5 4 4 4 3 3 2 1 1 2 3 3 4 4 4 5 5 5 4 4 4 4 3 2 2 2 2 2 3 2 3 2 2 2 2 3 3 3
8 7 6 6 6 6 5 5 5 5 4 2 1 1 2 3 3 4 4 4 4 5 5 4 4 4 4 4 3 2 2 2 2 2 2 3 2 2 2 2 3 3 3
8 8 7 7 7 6 6 6 5 5 4 2 1 1 2 2 2 3 4 4 4 4 5 5 4 4 4 4 3 3 3 3 2 2 2 2 3 3 3 3 3 2 2
8 9 8 7 7 6 5 6 5 4 4 3 3 3 2 1 1 2 3 3 4 4 4 5 5 5 4 3 2 2 2 3 3 3 2 1 2 3 2 2 3 3 2
9 9 9 8 8 7 7 6 6 5 4 4 4 3 2 1 1 2 3 3 4 4 4 4 5 6 5 6 5 2 2 2 3 3 3 2 2 2 2 2 3 4 4
9 9 9 9 9 8 8 7 6 5 5 4 4 3 2 2 2 2 2 3 4 4 4 4 5 5 7 8 6 3 1 2 2 2 2 2 2 2 1 2 2 3 5
8 8 8 8 7 6 7 6 5 5 5 4 4 3 3 3 2 2 3 3 3 3 3 4 5 5 7 8 6 3 2 2 3 3 2 2 2 2 1 0 1 1 2
8 7 7 7 6 7 7 6 5 4 4 4 4 5 4 3 3 3 4 3 2 3 3 4 4 4 6 8 6 3 2 2 4 3 3 2 2 3 2 1 1 2 3
6 6 6 5 6 6 6 6 5 4 5 6 6 5 5 4 4 5 4 3 2 3 4 4 4 4 5 7 5 2 1 2 3 3 4 4 3 4 2 0 1 2 3
6 6 7 5 4 5 6 6 4 4 6 5 4 4 4 5 5 4 3 3 3 3 4 5 5 4 5 6 5 2 1 1 2 2 3 4 6 5 4 2 2 3 3
6 7 7 5 3 5 6 5 3 4 3 3 3 4 4 4 3 3 4 3 3 3 4 4 5 4 4 5 5 3 1 1 0 2 3 4 6 6 5 3 3 3 2
7 6 7 6 3 3 5 5 3 3 3 3 3 3 3 3 3 3 4 3 3 3 4 3 4 5 4 4 5 4 3 2 1 2 5 6 7 6 4 4 4 2 1
6 6 7 6 3 2 2 2 2 2 2 2 2 2 2 3 3 3 3 2 3 3 3 3 4 4 4 4 3 2 2 3 2 3 5 6 6 4 4 4 3 1 2
6 6 7 6 4 2 2 1 0 2 2 1 1 2 2 3 3 3 3 3 3 3 3 3 3 3 4 6 5 3 2 2 2 2 3 3 3 4 4 3 3 2 2
6 6 6 6 4 3 2 1 1 2 3 1 1 2 2 2 2 3 3 4 4 4 3 3 3 3 5 7 6 5 5 3 1 1 2 3 4 4 4 4 4 3 3
Wind_Direction
169 156 144 134 118 104 88 68 59 25 19 4 351 340 331 325 330 328 332 328 329 330 320 313 314 320 308 289 287 270 267 250 212 148 313 297 252 228 205 198 190 200 204
150 148 141 130 124 118 94 77 71 47 24 339 287 272 285 294 299 311 324 324 326 326 318 301 295 297 301 314 298 260 269 262 176 146 108 325 323 289 223 196 193 196 196
162 160 146 138 133 126 116 107 111 87 26 2 348 344 344 335 335 329 324 318 322 324 318 304 286 279 242 252 258 223 199 236 247 192 163 175 231 274 294 223 201 193 195
158 158 152 145 148 156 144 126 129 107 340 4 11 357 341 324 302 302 307 314 319 319 318 307 294 278 255 242 244 225 202 191 227 254 219 209 194 188 285 316 244 202 203
162 162 160 156 162 165 154 148 132 342 328 352 4 3 332 302 302 312 322 323 319 317 315 307 303 296 276 258 249 237 221 200 203 206 217 230 226 199 186 239 269 243 221
165 161 159 155 161 164 153 150 145 281 317 341 354 354 323 323 330 328 329 326 319 317 317 312 306 296 282 266 254 235 230 224 220 213 201 196 204 200 187 206 219 227 240
166 162 162 167 173 175 176 176 180 261 303 331 340 330 304 306 313 311 315 319 320 316 314 315 307 299 287 277 261 239 238 230 228 223 215 210 215 203 188 188 204 216 245
177 175 177 178 184 187 188 190 196 238 292 315 310 313 305 295 299 304 304 306 302 296 303 313 311 302 296 291 276 245 247 241 236 237 223 220 225 211 196 187 178 198 251
185 181 181 182 186 190 199 197 190 212 267 285 289 304 309 309 308 310 311 307 307 311 320 325 324 315 304 293 287 263 267 261 248 245 235 226 227 223 213 201 186 179 201
186 183 184 189 193 198 202 188 180 188 220 256 280 303 308 310 314 324 328 326 326 333 338 338 336 334 325 310 293 283 281 265 262 246 244 242 232 231 219 211 208 192 185
188 188 192 195 193 190 183 180 181 187 216 244 287 335 321 320 333 341 331 328 334 342 348 344 345 348 347 340 339 308 292 273 275 266 246 250 235 227 225 214 210 203 185
187 187 188 186 187 190 188 187 191 199 220 234 268 319 318 333 348 341 332 336 340 343 349 353 354 354 354 353 355 332 326 293 278 275 262 256 242 229 226 210 214 211 194
185 185 184 187 194 197 197 195 196 207 218 217 228 327 331 337 339 335 335 341 344 344 348 356 353 349 348 346 342 335 321 305 289 274 260 257 233 230 234 221 218 217 207
187 186 193 201 203 201 197 197 206 210 204 193 196 257 287 299 311 325 340 341 342 344 343 346 343 339 339 341 338 346 335 325 317 294 261 239 216 219 221 221 222 213 200
193 193 196 202 204 202 200 201 209 210 196 183 201 231 246 265 305 324 333 338 343 345 341 345 344 341 336 333 331 331 338 337 337 335 318 279 244 232 210 206 202 193 190
198 196 194 195 199 200 199 200 209 209 192 189 212 227 233 252 286 301 320 335 339 341 345 346 342 341 339 337 339 339 358 357 353 345 334 318 318 306 289 264 215 191 190
196 192 193 196 198 199 192 195 203 198 188 200 217 223 224 241 270 292 318 320 320 332 336 334 337 333 329 337 340 346 24 6 352 343 333 336 345 349 332 307 287 234 221
187 188 191 195 198 194 191 190 184 180 187 203 214 219 217 237 264 287 295 297 303 309 314 319 324 330 336 349 355 9 33 15 354 348 338 330 330 333 339 322 330 289 267
180 183 184 181 179 183 182 170 172 176 189 208 218 222 215 224 243 262 273 276 288 299 302 306 319 326 327 343 353 17 24 3 351 347 349 337 327 328 1 58 301 301 298
157 162 159 150 161 179 163 155 170 182 210 220 222 220 212 214 230 246 257 260 260 276 299 309 309 308 312 331 347 8 50 357 339 341 342 346 334 328 332 237 232 263 276
148 143 136 137 162 162 144 148 165 205 226 219 214 217 220 221 230 245 253 258 269 291 305 308 308 306 301 319 335 6 102 288 320 330 329 325 333 330 322 300 240 248 252
139 135 131 136 146 139 134 140 190 233 219 197 204 225 236 242 237 240 264 268 268 286 298 307 312 308 304 308 312 319 292 233 264 297 304 308 318 322 322 308 281 289 280
151 143 140 139 137 141 136 149 221 223 190 188 223 247 261 260 256 243 261 276 268 261 279 287 294 301 304 306 305 306 307 306 265 282 297 309 317 322 323 308 297 301 287
159 149 139 141 152 159 145 176 222 190 163 196 250 268 278 283 281 268 257 256 263 258 266 271 277 287 298 295 293 298 305 313 310 312 320 326 330 325 309 311 313 292 249
159 148 148 150 151 133 113 58 84 137 148 205 290 299 291 287 292 284 259 247 246 222 227 251 255 266 285 278 253 225 246 252 271 318 338 344 342 339 333 326 310 294 278
151 145 144 142 138 121 91 13 33 119 125 94 343 320 316 314 309 309 317 292 265 286 271 269 264 272 270 284 278 255 250 260 276 18 329 321 319 313 310 312 310 298 272
Height
1523 1524 1524 1523 1523 1522 1520 1518 1517 1515 1513 1510 1508 1506 1504 1502 1499 1497 1496 1494 1492 1491 1490 1489 1488 1488 1488 1489 1489 1490 1491 1492 1493 1494 1495 1496 1498 1500 1502 1504 1506 1508 1511
1522 1523 1523 1522 1521 1520 1519 1517 1516 1514 1512 1510 1507 1505 1503 1501 1498 1496 1494 1492 1490 1489 1487 1486 1486 1486 1486 1486 1487 1488 1488 1489 1491 1492 1493 1494 1496 1496 1498 1500 1502 1505 1507
1520 1521 1521 1521 1520 1519 1518 1516 1514 1513 1511 1509 1507 1505 1502 1500 1497 1495 1493 1490 1488 1486 1485 1484 1483 1483 1483 1483 1484 1485 1486 1487 1489 1490 1492 1492 1493 1494 1495 1497 1499 1501 1503
1518 1519 1519 1519 1519 1518 1517 1515 1513 1512 1510 1508 1506 1503 1501 1499 1496 1494 1491 1489 1487 1485 1483 1482 1481 1481 1481 1481 1482 1482 1484 1485 1486 1487 1489 1491 1491 1493 1493 1494 1496 1498 1500
1517 1518 1518 1518 1517 1517 1516 1514 1513 1511 1509 1507 1505 1503 1501 1498 1496 1493 1490 1488 1486 1483 1482 1480 1479 1479 1478 1478 1479 1480 1481 1482 1483 1484 1486 1487 1489 1490 1491 1491 1493 1495 1497
1516 1516 1517 1517 1516 1516 1515 1513 1512 1510 1508 1506 1504 1502 1500 1497 1495 1492 1489 1487 1484 1482 1480 1478 1477 1476 1476 1476 1476 1477 1478 1479 1480 1481 1483 1484 1486 1487 1488 1490 1490 1492 1494
1514 1515 1515 1515 1515 1514 1514 1512 1511 1509 1508 1506 1504 1502 1499 1497 1494 1491 1488 1486 1483 1481 1479 1477 1475 1474 1474 1474 1474 1475 1475 1476 1477 1478 1480 1481 1483 1484 1486 1487 1488 1489 1491
1513 1513 1513 1514 1513 1513 1512 1511 1510 1508 1507 1505 1503 1501 1499 1496 1494 1491 1488 1485 1483 1480 1478 1476 1474 1473 1472 1472 1472 1472 1473 1474 1474 1475 1477 1478 1479 1481 1482 1484 1486 1486 1488
1511 1511 1512 1512 1512 1512 1511 1510 1509 1508 1506 1504 1502 1500 1498 1496 1493 1490 1488 1485 1482 1480 1477 1475 1473 1471 1470 1470 1470 1470 1471 1471 1472 1473 1474 1475 1476 1478 1479 1481 1483 1485 1485
1509 1510 1510 1511 1511 1511 1510 1509 1508 1507 1505 1504 1502 1500 1497 1495 1493 1490 1487 1484 1482 1479 1476 1474 1472 1470 1469 1468 1468 1468 1468 1469 1470 1470 1471 1472 1473 1475 1476 1477 1479 1481 1482
1507 1508 1509 1509 1510 1509 1509 1508 1507 1506 1505 1503 1501 1499 1497 1495 1492 1490 1487 1484 1481 1479 1476 1474 1471 1470 1468 1467 1466 1466 1467 1467 1467 1468 1469 1470 1471 1472 1473 1474 1476 1477 1479
1505 1506 1507 1508 1508 1508 1508 1507 1506 1505 1504 1502 1500 1499 1496 1494 1492 1489 1486 1484 1481 1479 1476 1473 1471 1469 1468 1466 1465 1465 1465 1465 1465 1466 1466 1467 1468 1469 1470 1471 1473 1474 1476
1504 1505 1505 1506 1506 1507 1506 1506 1505 1504 1503 1502 1500 1498 1496 1494 1491 1489 1486 1484 1481 1479 1476 1474 1471 1469 1468 1466 1465 1464 1464 1463 1463 1464 1464 1465 1466 1467 1468 1469 1470 1471 1473
1501 1502 1503 1504 1505 1505 1505 1505 1504 1503 1502 1501 1499 1497 1495 1494 1491 1489 1486 1484 1481 1479 1477 1474 1472 1470 1468 1466 1465 1464 1463 1462 1462 1462 1462 1463 1464 1464 1465 1466 1468 1469 1470
1499 1500 1501 1502 1503 1503 1503 1503 1503 1502 1501 1500 1498 1497 1495 1493 1491 1489 1487 1484 1482 1479 1477 1475 1472 1470 1468 1466 1465 1463 1462 1461 1461 1461 1461 1461 1462 1463 1463 1464 1465 1466 1467
1496 1497 1499 1500 1501 1501 1502 1502 1502 1501 1500 1499 1498 1496 1495 1493 1491 1489 1487 1485 1482 1480 1478 1475 1473 1471 1469 1467 1465 1464 1462 1461 1461 1460 1460 1460 1461 1461 1462 1462 1463 1464 1464
1494 1495 1496 1497 1498 1499 1500 1500 1500 1500 1499 1498 1497 1496 1494 1493 1491 1489 1487 1485 1483 1481 1478 1476 1473 1471 1469 1467 1465 1464 1463 1462 1461 1460 1460 1460 1459 1459 1460 1460 1461 1461 1462
1491 1493 1494 1495 1497 1498 1498 1499 1499 1499 1498 1497 1496 1495 1494 1492 1490 1489 1487 1485 1483 1481 1479 1476 1474 1472 1470 1468 1466 1465 1463 1462 1461 1460 1459 1459 1458 1458 1458 1458 1458 1459 1459
1489 1491 1492 1493 1495 1496 1497 1497 1497 1497 1497 1496 1495 1494 1493 1491 1490 1488 1487 1485 1483 1481 1479 1477 1475 1473 1471 1469 1467 1465 1464 1462 1461 1460 1459 1458 1458 1457 1457 1456 1456 1456 1457
1488 1489 1491 1492 1493 1494 1495 1495 1495 1495 1495 1495 1494 1493 1492 1491 1489 1488 1486 1485 1483 1481 1480 1478 1476 1473 1471 1469 1467 1466 1464 1463 1461 1460 1459 1458 1457 1456 1456 1455 1454 1454 1454
1486 1488 1489 1490 1491 1492 1493 1493 1494 1494 1494 1493 1492 1491 1491 1489 1488 1487 1486 1484 1483 1481 1479 1477 1476 1473 1471 1469 1468 1466 1464 1463 1461 1460 1459 1458 1457 1456 1455 1454 1453 1453 1453
1485 1486 1487 1488 1489 1490 1491 1491 1491 1492 1491 1491 1490 1490 1489 1488 1487 1486 1484 1483 1482 1480 1478 1477 1475 1473 1471 1469 1468 1466 1464 1463 1461 1460 1459 1457 1456 1455 1454 1453 1452 1452 1451
1483 1484 1485 1486 1487 1488 1489 1489 1489 1489 1489 1489 1488 1488 1487 1486 1485 1484 1483 1481 1480 1478 1477 1475 1473 1472 1470 1469 1467 1465 1464 1462 1461 1460 1459 1457 1456 1455 1453 1452 1451 1451 1450
1480 1482 1483 1484 1485 1486 1486 1487 1487 1487 1487 1486 1486 1485 1485 1484 1483 1482 1480 1479 1478 1476 1475 1473 1472 1470 1469 1467 1466 1464 1463 1461 1460 1459 1458 1456 1455 1454 1453 1452 1451 1450 1449
1478 1479 1481 1482 1482 1483 1484 1484 1484 1484 1484 1483 1483 1482 1482 1481 1480 1479 1478 1477 1476 1474 1473 1471 1470 1468 1467 1466 1464 1463 1461 1460 1459 1457 1456 1455 1454 1453 1452 1451 1449 1449 1448
1475 1477 1478 1479 1480 1481 1481 1481 1481 1481 1481 1481 1480 1479 1479 1478 1477 1476 1475 1475 1473 1472 1471 1469 1468 1466 1465 1464 1462 1461 1460 1459 1457 1456 1455 1453 1452 1451 1450 1449 1448 1447 1446